Regional Weather Roundup
Issued by NWS

Home | Current Version | Previous Version | Text Only | Print | Product List | Glossary On
Versions: 1 2 3 4 5 6 7 8 9 10 11 12 13 14 15 16 17 18 19 20 21 22 23 24 25 26 27 28 29 30 31 32 33 34 35 36 37 38 39 40 41 42 43 44 45 46 47 48 49 50
000
ASUS45 KBOI 271610
RWRID
WEATHER ROUNDUP FOR IDAHO
NATIONAL WEATHER SERVICE BOISE ID
1000 AM MDT FRI MAR 27 2015

NOTE: "FAIR" INDICATES FEW OR NO CLOUDS BELOW 12000 FEET
WITH NO SIGNIFICANT WEATHER AND/OR OBSTRUCTIONS TO VISIBILITY

IDZ012-014-271700-
SOUTHWEST IDAHO


CITY           SKY/WX    TMP DP  RH WIND       PRES   REMARKS
BOISE          SUNNY     53  41  63 CALM      30.22F
CALDWELL       SUNNY     50  37  62 CALM      30.24S
MOUNTAIN HOME  SUNNY     51  39  63 E14       30.23F
$$

IDZ016-017-271700-
SOUTHCENTRAL IDAHO


CITY           SKY/WX    TMP DP  RH WIND       PRES   REMARKS
BURLEY         SUNNY     48  36  63 CALM      30.26F
JEROME         SUNNY     51  37  58 NE14      30.26F
TWIN FALLS     SUNNY     57  39  51 NE3       30.26F
$$

IDZ019>023-271700-
SOUTHEAST IDAHO


CITY           SKY/WX    TMP DP  RH WIND       PRES   REMARKS
IDAHO FALLS    SUNNY     47  33  58 N3        30.31F
POCATELLO      SUNNY     49  35  58 NW6       30.31S
REXBURG        SUNNY     43  33  68 VRB3      30.32S
$$

IDZ006-010-011-018-031-032-271700-
CENTRAL IDAHO MOUNTAINS


CITY           SKY/WX    TMP DP  RH WIND       PRES   REMARKS
MCCALL         SUNNY     38  36  92 CALM      30.25F
HAILEY         SUNNY     46  34  61 NW9       30.32F
STANLEY          N/A     29  26  89 CALM      30.35F
SALMON         SUNNY     41  34  75 CALM      30.28F
CHALLIS        SUNNY     44  34  67 NE3       30.29F
$$

IDZ002-004-006-007-026-271700-
NORTHERN IDAHO


CITY           SKY/WX    TMP DP  RH WIND       PRES   REMARKS
LEWISTON       PTSUNNY   55  46  71 E7        30.10S
LOWELL           N/A     44  40  85 N6        30.22F
COEUR D`ALENE  CLOUDY    45  43  93 NE14      30.14F VSB 3/4
MULLAN PASS    SUNNY     46  38  73 VRB6      30.18R
$$



USA.gov is the U.S. government's official web portal to all federal, state and local government web resources and services.